When you browse on this site, cookies collect data to enhance your experience and personalize the content and advertising you see.
Visit our Privacy Policy to learn more. By continuing to use the site, you agree to this use of cookies and data.
  • în România
  • Lista ţărilor
  • Pe 7 zile
  • Temperatura apei
  • Hartă satelitară
  • Meteo pe hartă
  • Widget-uri
  • user-avatar
    Intrare

    Meteo pe oră la Matrah

    Astăzi, 25 Mai, Sâmbătă

    Timp Temperatura Precipitaţii Vânt Presiune Umiditate
    00:00 +37°C° 0 mm 2 m/s 754 mmHg 23%
    01:00 +37°C° 0 mm 2 m/s 754 mmHg 22%
    02:00 +36°C° 0 mm 2 m/s 754 mmHg 24%
    03:00 +36°C° 0 mm 2 m/s 754 mmHg 27%
    04:00 +35°C° 0 mm 3 m/s 753 mmHg 31%
    05:00 +35°C° 0 mm 2 m/s 754 mmHg 30%
    06:00 +35°C° 0 mm 1 m/s 754 mmHg 28%
    07:00 +36°C° 0 mm 1 m/s 754 mmHg 26%
    08:00 +37°C° 0 mm 1 m/s 754 mmHg 22%
    09:00 +40°C° 0 mm 1 m/s 754 mmHg 18%
    10:00 +41°C° 0 mm 1 m/s 755 mmHg 16%
    11:00 +42°C° 0 mm 1 m/s 755 mmHg 15%
    12:00 +43°C° 0 mm 2 m/s 754 mmHg 14%
    13:00 +43°C° 0 mm 2 m/s 754 mmHg 13%
    14:00 +43°C° 0 mm 2 m/s 754 mmHg 13%
    15:00 +43°C° 0 mm 2 m/s 753 mmHg 13%
    16:00 +43°C° 0 mm 2 m/s 753 mmHg 13%
    17:00 +42°C° 0 mm 2 m/s 753 mmHg 14%
    18:00 +41°C° 0 mm 2 m/s 752 mmHg 15%
    19:00 +41°C° 0 mm 2 m/s 752 mmHg 16%
    20:00 +40°C° 0 mm 2 m/s 752 mmHg 16%
    21:00 +40°C° 0 mm 2 m/s 753 mmHg 16%
    22:00 +39°C° 0 mm 3 m/s 753 mmHg 17%
    23:00 +39°C° 0 mm 3 m/s 752 mmHg 16%

    Mâine, 26 Mai, Duminică

    Timp Temperatura Precipitaţii Vânt Presiune Umiditate
    00:00 +39°C° 0 mm 3 m/s 752 mmHg 16%
    01:00 +39°C° 0 mm 3 m/s 752 mmHg 15%
    02:00 +38°C° 0 mm 3 m/s 752 mmHg 19%
    03:00 +37°C° 0 mm 3 m/s 752 mmHg 24%
    04:00 +36°C° 0 mm 3 m/s 752 mmHg 28%
    05:00 +36°C° 0 mm 2 m/s 753 mmHg 28%
    06:00 +36°C° 0 mm 1 m/s 753 mmHg 28%
    07:00 +36°C° 0 mm 1 m/s 753 mmHg 28%
    08:00 +36°C° 0 mm 0 m/s 753 mmHg 24%
    09:00 +37°C° 0 mm 0 m/s 753 mmHg 21%
    10:00 +39°C° 0 mm 0 m/s 754 mmHg 17%
    11:00 +43°C° 0 mm 1 m/s 753 mmHg 15%
    12:00 +45°C° 0 mm 2 m/s 753 mmHg 14%
    13:00 +46°C° 0 mm 2 m/s 753 mmHg 12%
    14:00 +46°C° 0 mm 3 m/s 752 mmHg 12%
    15:00 +45°C° 0 mm 3 m/s 752 mmHg 12%
    16:00 +45°C° 0 mm 3 m/s 751 mmHg 12%
    17:00 +43°C° 0 mm 2 m/s 751 mmHg 13%
    18:00 +42°C° 0 mm 2 m/s 751 mmHg 15%
    19:00 +41°C° 0 mm 1 m/s 751 mmHg 16%
    20:00 +41°C° 0 mm 1 m/s 752 mmHg 16%
    21:00 +40°C° 0 mm 2 m/s 752 mmHg 16%
    22:00 +40°C° 0 mm 2 m/s 752 mmHg 16%
    23:00 +40°C° 0 mm 2 m/s 752 mmHg 16%

    Poimâine, 27 Mai, Luni

    Timp Temperatura Precipitaţii Vânt Presiune Umiditate
    00:00 +40°C° 0 mm 3 m/s 752 mmHg 16%
    01:00 +40°C° 0 mm 3 m/s 752 mmHg 16%
    02:00 +39°C° 0 mm 2 m/s 752 mmHg 21%
    03:00 +38°C° 0 mm 2 m/s 751 mmHg 26%
    04:00 +37°C° 0 mm 2 m/s 751 mmHg 31%
    05:00 +36°C° 0 mm 1 m/s 752 mmHg 31%
    06:00 +37°C° 0 mm 1 m/s 752 mmHg 31%
    07:00 +37°C° 0 mm 1 m/s 752 mmHg 30%
    08:00 +40°C° 0 mm 1 m/s 753 mmHg 26%
    09:00 +38°C° 0 mm 0 m/s 753 mmHg 21%
    10:00 +40°C° 0 mm 0 m/s 753 mmHg 16%
    11:00 +44°C° 0 mm 1 m/s 753 mmHg 15%
    12:00 +46°C° 0 mm 2 m/s 753 mmHg 13%
    13:00 +47°C° 0 mm 2 m/s 752 mmHg 12%
    14:00 +46°C° 0 mm 3 m/s 752 mmHg 12%
    15:00 +47°C° 0 mm 4 m/s 751 mmHg 13%
    16:00 +45°C° 0 mm 4 m/s 751 mmHg 13%
    17:00 +44°C° 0 mm 3 m/s 751 mmHg 14%
    18:00 +42°C° 0 mm 2 m/s 751 mmHg 16%
    19:00 +41°C° 0 mm 1 m/s 752 mmHg 17%
    20:00 +41°C° 0 mm 2 m/s 752 mmHg 17%
    21:00 +41°C° 0 mm 2 m/s 752 mmHg 17%
    22:00 +40°C° 0 mm 2 m/s 753 mmHg 16%
    23:00 +40°C° 0 mm 3 m/s 752 mmHg 20%

    28 Mai, Marţi

    Timp Temperatura Precipitaţii Vânt Presiune Umiditate
    00:00 +40°C° 0 mm 3 m/s 752 mmHg 23%
    01:00 +40°C° 0 mm 3 m/s 752 mmHg 26%
    02:00 +39°C° 0 mm 3 m/s 752 mmHg 31%
    03:00 +38°C° 0 mm 3 m/s 751 mmHg 35%
    04:00 +38°C° 0 mm 3 m/s 751 mmHg 40%
    05:00 +38°C° 0 mm 2 m/s 752 mmHg 38%
    06:00 +38°C° 0 mm 2 m/s 752 mmHg 37%
    07:00 +39°C° 0 mm 2 m/s 752 mmHg 35%
    08:00 +40°C° 0 mm 2 m/s 753 mmHg 29%
    09:00 +42°C° 0 mm 1 m/s 753 mmHg 23%
    10:00 +44°C° 0 mm 1 m/s 753 mmHg 17%
    11:00 +45°C° 0 mm 2 m/s 752 mmHg 15%
    12:00 +46°C° 0 mm 3 m/s 752 mmHg 14%
    13:00 +48°C° 0 mm 4 m/s 752 mmHg 13%
    14:00 +47°C° 0 mm 4 m/s 751 mmHg 14%
    15:00 +46°C° 0 mm 3 m/s 751 mmHg 14%
    16:00 +45°C° 0 mm 3 m/s 751 mmHg 14%
    17:00 +45°C° 0 mm 3 m/s 751 mmHg 14%
    18:00 +43°C° 0 mm 2 m/s 751 mmHg 14%
    19:00 +42°C° 0 mm 2 m/s 751 mmHg 15%
    20:00 +42°C° 0 mm 2 m/s 752 mmHg 15%
    21:00 +41°C° 0 mm 2 m/s 752 mmHg 15%
    22:00 +41°C° 0 mm 1 m/s 752 mmHg 15%
    23:00 +41°C° 0 mm 2 m/s 752 mmHg 18%

    29 Mai, Miercuri

    Timp Temperatura Precipitaţii Vânt Presiune Umiditate
    00:00 +40°C° 0 mm 2 m/s 752 mmHg 20%
    01:00 +40°C° 0 mm 2 m/s 752 mmHg 23%
    02:00 +39°C° 0 mm 2 m/s 751 mmHg 29%
    03:00 +38°C° 0 mm 3 m/s 751 mmHg 35%
    04:00 +37°C° 0 mm 3 m/s 751 mmHg 41%
    05:00 +38°C° 0 mm 3 m/s 752 mmHg 40%
    06:00 +38°C° 0 mm 4 m/s 752 mmHg 39%
    07:00 +38°C° 0 mm 4 m/s 752 mmHg 38%
    08:00 +40°C° 0 mm 3 m/s 753 mmHg 31%
    09:00 +42°C° 0 mm 2 m/s 753 mmHg 24%
    10:00 +44°C° 0 mm 1 m/s 753 mmHg 17%
    11:00 +45°C° 0 mm 2 m/s 752 mmHg 17%
    12:00 +46°C° 0 mm 3 m/s 752 mmHg 16%
    13:00 +48°C° 0 mm 4 m/s 751 mmHg 15%
    14:00 +47°C° 0 mm 4 m/s 751 mmHg 16%
    15:00 +45°C° 0 mm 3 m/s 751 mmHg 16%
    16:00 +45°C° 0 mm 2 m/s 750 mmHg 17%
    17:00 +43°C° 0 mm 2 m/s 751 mmHg 17%
    18:00 +43°C° 0 mm 2 m/s 751 mmHg 18%
    19:00 +42°C° 0 mm 2 m/s 751 mmHg 18%
    20:00 +42°C° 0 mm 2 m/s 751 mmHg 19%
    21:00 +42°C° 0 mm 2 m/s 751 mmHg 19%
    22:00 +41°C° 0 mm 2 m/s 752 mmHg 20%
    23:00 +42°C° 0 mm 3 m/s 751 mmHg 22%

    30 Mai, Joi

    Timp Temperatura Precipitaţii Vânt Presiune Umiditate
    00:00 +42°C° 0 mm 3 m/s 751 mmHg 24%
    01:00 +41°C° 0 mm 4 m/s 751 mmHg 26%
    02:00 +41°C° 0 mm 4 m/s 751 mmHg 30%
    03:00 +40°C° 0 mm 4 m/s 751 mmHg 35%
    04:00 +38°C° 0 mm 4 m/s 751 mmHg 39%
    05:00 +38°C° 0 mm 4 m/s 751 mmHg 38%
    06:00 +39°C° 0 mm 5 m/s 752 mmHg 37%
    07:00 +40°C° 0 mm 5 m/s 752 mmHg 35%
    08:00 +42°C° 0 mm 4 m/s 752 mmHg 30%
    09:00 +43°C° 0 mm 3 m/s 752 mmHg 24%
    10:00 +45°C° 0 mm 2 m/s 752 mmHg 18%
    11:00 +46°C° 0 mm 3 m/s 752 mmHg 17%
    12:00 +47°C° 0 mm 3 m/s 751 mmHg 16%
    13:00 +48°C° 0 mm 3 m/s 751 mmHg 14%
    14:00 +46°C° 0 mm 3 m/s 750 mmHg 18%
    15:00 +45°C° 0 mm 3 m/s 750 mmHg 21%
    16:00 +43°C° 0 mm 3 m/s 749 mmHg 24%
    17:00 +43°C° 0 mm 3 m/s 750 mmHg 24%
    18:00 +42°C° 0 mm 2 m/s 750 mmHg 24%
    19:00 +42°C° 0 mm 2 m/s 750 mmHg 24%
    20:00 +41°C° 0 mm 2 m/s 750 mmHg 24%
    21:00 +41°C° 0 mm 2 m/s 750 mmHg 23%
    22:00 +41°C° 0 mm 2 m/s 751 mmHg 22%
    23:00 +41°C° 0 mm 2 m/s 750 mmHg 22%
    Arată mai mult